sat.trackr.live / text

‹ back to catalog

STARLINK-37364

NORAD 68783 · 2026-086T

PAYLOAD ACTIVE UNKNOWN

§ Identity

Operator
Country
US
Launch date
2026-04-19
Launch site
AFWTR
Launch vehicle
Mass (kg)
RCS (m²)

Purposes: comms

External: N2YO · Heavens-Above · Gunter

§ Orbital elements

Epoch: 2026-09-19T19:40:35.236128Z

Period
93.90 min
Inclination
97.2823°
Eccentricity
0.0001197
Mean motion
15.33466210 rev/d
Perigee alt
464.7 km
Apogee alt
466.3 km
Semi-major
6,843.6 km
B*
3.1306e-4
RAAN
298.2993°
Arg perigee
266.8551°
Mean anomaly
93.2554°
Rev number
2,358

§ Raw data

STARLINK-373641 68783U 26086T   26262.81985227  .00010052  00000+0  31306-3 0  99972 68783  97.2823 298.2993 0001197 266.8551  93.2554 15.33466210 23585

JSON: /api/v1/satellites/68783 · /tle

For live sub-satellite position, see the globe view (requires WebGL).

§ Visibility from observer

Set your observer location to see the next 7 days of passes ≥ 10°. The values pass through the URL so the page stays shareable.

No JS? Fill the form by hand. The geolocation button needs JavaScript.